Stations météo

réclame
Mon MeteoGroup
Greifswalder Oie, Allemagne (10097): Température de l'air & dewpoint: 15.01.2018 13:00:00 - 21.01.2018 13:00:00 (CET)Greifswalder Oie, Allemagne (10097): Température de l'air 5cm & Température de l'air -5cm: 15.01.2018 13:00:00 - 21.01.2018 13:00:00 (CET)Greifswalder Oie, Allemagne (10097): Température de l'air -20cm & Température de l'air -100cm: 15.01.2018 13:00:00 - 21.01.2018 13:00:00 (CET)Greifswalder Oie, Allemagne (10097): water temperature: 15.01.2018 13:00:00 - 21.01.2018 13:00:00 (CET)Greifswalder Oie, Allemagne (10097): Vitesse du vent & gusts: 15.01.2018 13:00:00 - 21.01.2018 13:00:00 (CET)Greifswalder Oie, Allemagne (10097): Direction du vent: 15.01.2018 13:00:00 - 21.01.2018 13:00:00 (CET)Greifswalder Oie, Allemagne (10097): reduced air pressure: 15.01.2018 13:00:00 - 21.01.2018 13:00:00 (CET)Greifswalder Oie, Allemagne (10097): visibility: 15.01.2018 13:00:00 - 21.01.2018 13:00:00 (CET)Greifswalder Oie, Allemagne (10097): Ensoleillement: 15.01.2018 13:00:00 - 21.01.2018 13:00:00 (CET)Greifswalder Oie, Allemagne (10097): Quantités de précipitations: 15.01.2018 13:00:00 - 21.01.2018 13:00:00 (CET)
Date & Time tt [°C] td [°C] tt 5cm [°C] tt -5cm [°C] tt -20cm [°C] tt -100cm [°C] tw [°C] ff [km/h] ff [knt] fx [km/h] fx [knt] dd ppp [hPa] vv [km] sd [min] rr [mm]
21.01.2018 13:00:00 2,2 0,4 4,5 3,6 2,0 4,5 2,0 6 3 8 5 W 1014,3 4,1 26 0,0
21.01.2018 12:00:00 2,5 1,2 3,0 2,6 1,8 4,5 2,1 5 3 7 4 SW 1013,7 3,5 3 0,0
21.01.2018 11:00:00 2,0 0,4 2,5 1,5 1,7 4,5 2,0 5 3 9 5 NE 1013,0 4,8 0 0,0
21.01.2018 10:00:00 1,3 0,7 0,8 0,6 1,7 4,5 1,9 5 3 8 4 E 1012,1 2,2 0 0,0
21.01.2018 09:00:00 1,3 0,4 0,0 0,9 1,7 4,5 1,9 5 3 9 5 E 1011,0 2,3 0 0,0
21.01.2018 08:00:00 1,4 0,5 1,1 0,9 1,7 4,5 1,8 6 4 11 6 ESE 1010,0 2,4 0 0,0
21.01.2018 07:00:00 1,2 0,5 0,3 0,7 1,8 4,5 1,8 4 2 8 4 E 1009,0 1,7 0 0,0
21.01.2018 06:00:00 1,4 0,5 0,1 0,8 1,8 4,5 2,1 5 3 14 7 ENE 1008,3 2,4 0 0,0
21.01.2018 05:00:00 1,6 0,7 1,2 0,9 1,8 4,5 1,9 10 5 14 8 E 1007,5 2,4 0 0,0
21.01.2018 04:00:00 1,5 0,6 1,2 0,9 1,8 4,5 1,9 5 3 13 7 ESE 1006,9 2,5 0 0,0
21.01.2018 03:00:00 1,3 0,7 0,7 0,6 1,8 4,5 1,9 9 5 13 7 ESE 1006,2 2,3 0 0,0
21.01.2018 02:00:00 1,1 0,7 0,1 0,6 1,9 4,5 1,9 6 3 10 5 ESE 1005,5 2,1 0 0,0
21.01.2018 01:00:00 1,3 0,6 0,4 0,8 2,0 4,5 1,9 7 4 14 7 ESE 1005,1 4,2 0 0,0
21.01.2018 00:00:00 1,5 0,6 1,0 1,0 2,0 4,5 2,0 8 4 14 8 SSE 1004,8 4,5 0 0,0
20.01.2018 23:00:00 1,5 0,8 1,0 0,9 2,1 4,5 2,1 10 5 16 9 SE 1004,5 4,1 0 0,0
20.01.2018 22:00:00 1,4 0,5 0,5 0,8 2,2 4,5 2,2 9 5 16 9 SSE 1004,2 6 0 0,0
20.01.2018 21:00:00 1,5 0,2 0,9 1,1 2,3 4,5 2,4 10 5 16 9 SSE 1004,2 8 0 0,0
20.01.2018 20:00:00 1,5 0,1 0,9 1,4 2,3 4,5 2,1 9 5 19 10 SSE 1004,0 8 0 0,0
20.01.2018 19:00:00 1,6 0,2 1,4 1,6 2,4 4,5 2,1 11 6 19 10 S 1004,1 8 0 0,0
20.01.2018 18:00:00 1,6 0,2 1,4 1,8 2,4 4,5 2,2 10 5 17 9 S 1004,1 8 0 0,0
20.01.2018 17:00:00 1,7 0,2 1,6 1,9 2,4 4,5 2,1 11 6 18 10 S 1004,2 8 0 0,0
20.01.2018 16:00:00 1,8 0,3 1,8 2,2 2,4 4,5 2,1 14 8 19 10 SSW 1004,3 8 0 0,0
20.01.2018 15:00:00 1,9 0,5 2,0 2,4 2,4 4,5 2,0 16 9 19 11 SSW 1004,4 7 0 0,0
20.01.2018 14:00:00 1,9 0,7 1,9 2,5 2,3 4,4 2,0 15 8 20 11 SSW 1004,5 7 0 0,0
20.01.2018 13:00:00 1,8 0,3 1,9 2,5 2,2 4,4 2,0 16 9 22 12 SW 1005,0 9 0 0,0
20.01.2018 12:00:00 1,7 0,2 1,7 2,3 2,1 4,4 2,1 17 9 22 12 SSW 1005,5 8 1 0,0
20.01.2018 11:00:00 1,7 0,4 1,9 2,1 2,0 4,4 2,1 16 9 24 13 SSW 1005,8 8 1 0,0
20.01.2018 10:00:00 1,6 0,1 1,4 1,5 2,0 4,4 2,1 22 12 30 16 WSW 1005,9 10 0 0,0
20.01.2018 09:00:00 1,7 0,5 1,4 1,4 2,0 4,4 2,0 24 13 30 16 WSW 1005,6 8 0 0,0
20.01.2018 08:00:00 1,6 0,7 1,4 1,4 2,0 4,4 2,1 21 11 27 15 SW 1005,5 4,8 0 0,0
20.01.2018 07:00:00 1,8 1,0 1,4 1,3 2,0 4,4 2,2 22 12 27 15 SSW 1005,5 4,2 0 0,0
20.01.2018 06:00:00 1,8 1,0 1,4 1,3 2,0 4,4 2,2 21 11 27 14 SSW 1005,5 4,1 0 0,0
20.01.2018 05:00:00 1,9 1,2 1,6 1,5 2,0 4,4 2,3 22 12 26 14 SSW 1005,8 3,6 0 0,0
20.01.2018 04:00:00 1,9 1,2 1,6 1,4 2,0 4,4 2,3 21 11 26 14 SSW 1005,8 4,5 0 0,0
20.01.2018 03:00:00 2,0 1,1 1,6 1,3 2,0 4,4 2,3 20 11 22 12 SW 1006,0 6 0 0,0
20.01.2018 02:00:00 1,6 1,0 1,3 1,2 2,0 4,4 2,3 19 10 24 13 SW 1005,9 4,0 0 0,0
20.01.2018 01:00:00 1,5 1,0 1,1 1,0 2,1 4,4 2,3 22 12 25 14 SSW 1006,2 4,5 0 0,2
20.01.2018 00:00:00 0,7 0,4 0,1 1,0 2,1 4,4 2,3 16 8 28 15 SSW 1006,3 2,4 0 0,7
19.01.2018 23:00:00 1,7 0,9 1,5 1,6 2,2 4,4 2,4 15 8 24 13 SSW 1006,3 6 0 0,0
19.01.2018 22:00:00 1,7 1,1 1,6 1,6 2,2 4,4 2,4 17 9 24 13 SW 1006,3 4,5 0 0,0
19.01.2018 21:00:00 1,6 1,0 1,5 1,6 2,2 4,4 2,5 18 10 23 12 SW 1006,2 4,4 0 0,0
19.01.2018 20:00:00 1,7 0,9 1,6 1,6 2,2 4,4 2,5 19 10 27 14 WSW 1006,0 6 0 0,0
19.01.2018 19:00:00 1,6 0,9 1,4 1,7 2,3 4,4 2,5 21 12 26 14 WSW 1005,9 7 0 0,0
19.01.2018 18:00:00 1,7 0,8 1,6 1,8 2,3 4,4 2,5 17 9 24 13 WSW 1005,8 9 0 0,0
19.01.2018 17:00:00 1,7 0,7 1,6 2,0 2,3 4,4 2,5 15 8 30 16 SW 1005,6 10 0 0,0
19.01.2018 16:00:00 1,7 0,9 1,7 2,3 2,2 4,4 2,5 26 14 29 16 SW 1005,1 8 0 0,0
19.01.2018 15:00:00 1,7 1,0 1,9 2,7 2,1 4,4 2,5 17 9 29 15 WSW 1004,9 9 0 0,0
19.01.2018 14:00:00 2,0 1,1 3,0 2,8 2,0 4,4 2,4 23 12 29 15 WSW 1004,3 8 2 0,0
19.01.2018 13:00:00 1,6 0,8 2,0 2,4 1,8 4,4 2,4 24 13 33 18 WSW 1004,1 7 0 0,0
19.01.2018 12:00:00 1,5 0,8 2,0 2,1 1,7 4,4 2,3 25 14 34 18 W 1004,0 6 3 0,0
19.01.2018 11:00:00 1,0 0,6 0,9 1,5 1,7 4,4 2,1 28 15 37 20 W 1003,5 4,6 0 0,0
19.01.2018 10:00:00 0,7 0,2 0,9 1,2 1,7 4,4 2,0 29 16 35 19 W 1002,8 5 0 0,0
19.01.2018 09:00:00 1,2 0,6 1,0 1,0 1,7 4,4 2,1 29 15 36 19 WSW 1001,8 6 0 0,0
19.01.2018 08:00:00 1,5 0,9 1,2 1,2 1,7 4,4 2,1 26 14 34 18 WSW 1001,0 6 0 0,0
19.01.2018 07:00:00 1,5 1,1 1,2 1,2 1,7 4,4 2,3 27 14 35 19 WSW 1000,2 4,7 0 0,0
19.01.2018 06:00:00 1,6 1,2 1,4 1,2 1,6 4,4 2,3 18 10 23 13 WSW 999,9 6 0 0,0
19.01.2018 05:00:00 1,8 1,0 1,5 1,1 1,6 4,4 2,3 15 8 31 17 WNW 999,1 22 0 0,1
19.01.2018 04:00:00 1,8 0,9 1,6 1,1 1,6 4,5 2,3 24 13 30 16 WNW 998,5 25 0 0,0
19.01.2018 03:00:00 2,2 1,2 1,9 1,2 1,6 4,5 2,3 23 12 29 15 WNW 998,0 27 0 0,0
19.01.2018 02:00:00 2,1 1,6 1,9 1,2 1,6 4,5 2,3 24 13 34 18 WNW 997,1 23 0 0,1
19.01.2018 01:00:00 2,0 1,4 1,6 1,0 1,6 4,5 2,3 29 15 36 19 NW 996,3 21 0 0,2
19.01.2018 00:00:00 2,0 1,5 1,5 1,1 1,5 4,5 2,3 34 18 45 24 NW 995,3 20 0 0,1
18.01.2018 23:00:00 2,2 1,4 1,6 1,0 1,5 4,5 2,3 37 20 49 27 NNW 994,1 31 0 0,0
18.01.2018 22:00:00 2,4 1,4 1,7 1,2 1,5 4,5 2,3 40 22 51 28 N 992,4 16 0 0,2
18.01.2018 21:00:00 2,4 1,5 1,8 1,1 1,4 4,5 2,4 36 20 50 27 N 990,7 18 0 0,0
18.01.2018 20:00:00 2,0 1,3 1,6 1,0 1,4 4,5 2,3 37 20 51 28 NNE 988,3 19 0 0,0
18.01.2018 19:00:00 1,5 1,1 1,1 0,8 1,4 4,5 2,2 30 16 53 28 NE 985,7 7 0 0,2
18.01.2018 18:00:00 1,4 1,1 0,9 0,6 1,5 4,5 2,2 36 19 62 33 ENE 983,8 5 0 0,3
18.01.2018 17:00:00 0,9 0,9 0,2 0,4 1,5 4,5 2,0 42 23 61 33 E 982,4 3,7 0 1,1
18.01.2018 16:00:00 0,6 0,5 0,1 0,5 1,6 4,5 2,0 41 22 61 33 E 982,3 1,0 0 1,0
18.01.2018 15:00:00 0,7 0,4 0,1 0,7 1,7 4,5 2,0 43 23 56 30 E 983,2 1,2 0 1,3
18.01.2018 14:00:00 0,9 0,4 0,5 1,3 1,7 4,5 2,1 35 19 48 26 ESE 985,0 1,9 0 0,6
18.01.2018 13:00:00 1,6 0,3 1,2 1,5 1,7 4,5 2,1 29 16 43 23 SE 987,6 5 0 0,0
18.01.2018 12:00:00 2,1 0,5 2,0 1,5 1,6 4,5 2,1 29 15 38 21 SE 989,6 18 0 0,0
18.01.2018 11:00:00 2,0 0,4 1,7 1,4 1,6 4,5 2,1 20 11 37 20 S 991,7 15 0 0,0
18.01.2018 10:00:00 2,2 0,5 2,1 1,4 1,5 4,5 2,1 19 10 31 17 S 993,7 17 0 0,0
18.01.2018 09:00:00 2,1 0,5 1,9 1,2 1,5 4,5 2,1 25 14 30 16 SSW 994,7 21 0 0,0
18.01.2018 08:00:00 2,2 0,3 1,9 1,2 1,4 4,5 2,1 25 14 39 21 SSW 995,5 27 0 0,0
18.01.2018 07:00:00 2,3 0,4 2,0 1,1 1,4 4,5 2,1 32 18 44 24 SW 996,3 31 0 0,0
18.01.2018 06:00:00 2,2 0,5 1,9 1,1 1,3 4,5 2,1 34 18 42 23 SW 996,6 28 0 0,0
18.01.2018 05:00:00 2,2 0,6 2,0 1,0 1,2 4,5 2,2 35 19 44 24 WSW 997,4 23 0 0,0
18.01.2018 04:00:00 2,1 0,8 1,5 0,7 1,2 4,5 2,2 35 19 53 28 SW 997,5 21 0 0,0
18.01.2018 03:00:00 1,8 0,7 1,3 0,6 1,2 4,5 2,1 42 23 55 30 SW 997,6 19 0 0,0
18.01.2018 02:00:00 1,7 0,4 1,0 0,5 1,2 4,5 2,1 42 23 52 28 WSW 997,3 23 0 0,0
18.01.2018 01:00:00 1,7 0,2 0,7 0,3 1,2 4,5 2,1 34 18 48 26 WSW 997,3 22 0 0,0
18.01.2018 00:00:00 1,6 0,3 0,7 0,5 1,2 4,5 2,1 37 20 49 26 WSW 997,0 18 0 0,0
17.01.2018 23:00:00 1,6 0,7 1,0 0,6 1,2 4,5 2,2 32 17 50 27 WSW 996,7 16 0 0,1
17.01.2018 22:00:00 1,7 0,3 0,8 0,6 1,2 4,5 2,2 41 22 52 28 WSW 996,0 18 0 0,0
17.01.2018 21:00:00 1,0 0,6 0,7 0,6 1,2 4,5 2,3 28 15 46 25 WNW 995,8 6 0 0,5
17.01.2018 20:00:00 1,1 0,6 0,9 0,7 1,2 4,5 2,3 42 23 54 29 W 994,8 18 0 0,0
17.01.2018 19:00:00 2,0 0,5 1,4 0,7 1,2 4,6 2,4 40 22 49 26 WSW 994,2 25 0 0,1
17.01.2018 18:00:00 1,9 0,4 1,2 0,5 1,2 4,6 2,4 44 24 53 29 WSW 993,3 8 0 0,0
17.01.2018 17:00:00 2,1 0,8 1,7 0,8 1,1 4,6 2,4 34 18 42 23 WSW 992,8 16 0 0,0
17.01.2018 16:00:00 2,0 0,8 1,8 1,1 1,0 4,6 2,4 34 19 43 23 WSW 992,1 10 0 0,0
17.01.2018 15:00:00 2,0 0,7 1,9 1,2 0,9 4,6 2,4 35 19 43 23 WSW 991,5 10 13 0,0
17.01.2018 14:00:00 2,1 0,6 2,0 0,8 0,8 4,6 2,4 35 19 41 22 WSW 990,9 9 0 0,0
17.01.2018 13:00:00 2,1 0,7 2,3 0,2 0,8 4,6 2,4 29 16 36 20 SW 990,3 9 0 0,0
17.01.2018 12:00:00 2,0 0,4 1,8 0,0 0,8 4,6 2,4 33 18 37 20 SW 990,0 11 19 0,0
17.01.2018 11:00:00 1,9 0,3 1,7 0,0 0,8 4,6 2,3 26 14 37 20 SW 989,8 15 0 0,0
17.01.2018 10:00:00 1,9 0,0 1,7 0,0 0,8 4,6 2,3 36 19 44 24 SW 989,2 17 4 0,0
17.01.2018 09:00:00 1,8 0,2 1,0 0,0 0,8 4,6 2,3 26 14 31 17 SW 988,7 19 0 0,0
17.01.2018 08:00:00 1,8 0,1 1,5 0,0 0,8 4,6 2,3 26 14 36 19 SW 988,2 17 0 0,0
17.01.2018 07:00:00 1,8 0,4 1,6 0,0 0,8 4,6 2,4 32 18 40 21 SW 987,7 14 0 0,0
17.01.2018 06:00:00 1,6 0,0 0,8 0,0 0,8 4,6 2,4 30 16 38 21 SW 987,4 16 0 0,0
17.01.2018 05:00:00 1,8 0,1 1,1 0,0 0,8 4,6 2,5 33 18 42 23 WSW 987,3 21 0 0,0
17.01.2018 04:00:00 1,8 0,2 1,3 0,0 0,8 4,6 2,6 31 17 40 22 WSW 987,4 20 0 0,0
17.01.2018 03:00:00 2,0 0,5 1,6 0,0 0,8 4,6 2,5 29 15 37 20 WSW 987,5 20 0 0,0
17.01.2018 02:00:00 1,9 0,5 1,5 0,0 0,8 4,7 2,4 29 16 36 20 WSW 987,6 18 0 0,0
17.01.2018 01:00:00 1,9 0,7 1,5 0,0 0,8 4,7 2,4 25 13 41 22 WSW 987,6 21 0 0,0
17.01.2018 00:00:00 2,0 0,7 1,6 0,0 0,8 4,7 2,4 31 17 41 22 WSW 987,3 20 0 0,0
16.01.2018 23:00:00 1,8 0,8 1,3 0,0 0,8 4,7 2,5 30 16 40 22 WSW 987,0 18 0 0,0
16.01.2018 22:00:00 1,9 1,0 1,4 0,0 0,8 4,7 2,4 31 17 42 23 WSW 986,9 12 0 0,0
16.01.2018 21:00:00 2,4 1,4 1,7 0,0 0,8 4,7 2,5 28 15 34 19 WSW 986,6 12 0 0,0
16.01.2018 20:00:00 2,6 1,6 1,9 0,0 0,7 4,7 2,5 23 12 26 14 SW 986,6 19 0 0,1
16.01.2018 19:00:00 2,5 1,9 1,9 0,0 0,7 4,7 2,4 17 9 38 21 SSW 986,6 17 0 0,1
16.01.2018 18:00:00 2,7 2,0 2,1 0,0 0,8 4,7 2,5 22 12 26 14 SSW 986,4 22 0 0,0
16.01.2018 17:00:00 2,6 2,1 2,1 0,0 0,8 4,7 2,4 22 12 29 16 SSW 986,6 13 0 0,0
16.01.2018 16:00:00 2,7 2,2 2,2 0,0 0,7 4,7 2,4 22 12 29 16 SSW 986,5 9 0 0,2
16.01.2018 15:00:00 2,7 2,2 2,4 0,0 0,8 4,7 2,4 17 9 28 15 S 986,5 7 0 0,2
16.01.2018 14:00:00 2,6 2,0 2,2 0,0 0,7 4,7 2,4 22 12 29 16 S 986,8 8 0 0,1
16.01.2018 13:00:00 2,6 2,0 2,5 -0,1 0,8 4,7 2,3 18 10 34 18 S 987,4 10 0 0,0
16.01.2018 12:00:00 2,5 1,8 2,0 -0,1 0,7 4,8 2,2 24 13 41 22 S 987,8 8 5 0,1
16.01.2018 11:00:00 2,6 1,8 2,1 -0,1 0,8 4,8 1,9 28 15 41 22 SSW 988,4 12 0 0,0
16.01.2018 10:00:00 1,9 1,2 1,2 -0,1 0,8 4,8 1,3 31 17 46 25 SSW 988,6 13 0 0,1
16.01.2018 09:00:00 1,6 0,8 0,4 -0,1 0,7 4,8 0,8 31 17 42 23 S 988,3 16 0 0,0
16.01.2018 08:00:00 1,2 0,6 0,0 -0,2 0,8 4,8 0,8 25 14 48 26 S 988,4 15 0 0,0
16.01.2018 07:00:00 0,8 0,5 0,0 -0,2 0,8 4,8 0,8 31 17 53 29 S 988,7 10 0 0,8
16.01.2018 06:00:00 0,1 0,0 0,0 -0,2 0,8 4,8 0,3 35 19 57 31 S 988,9 0,7 0 1,3
16.01.2018 05:00:00 0,4 -0,4 0,0 -0,2 0,8 4,8 0,7 38 21 68 37 S 989,7 1,3 0 0,1
16.01.2018 04:00:00 0,1 -0,5 0,0 -0,2 0,8 4,8 0,5 35 19 65 35 S 990,9 2,4 0 0,2
16.01.2018 03:00:00 0,1 -1,4 0,4 -0,2 0,8 4,8 0,5 38 20 65 35 S 992,5 2,5 0 0,0
16.01.2018 02:00:00 1,5 -2,7 1,2 -0,2 0,8 4,8 0,7 39 21 65 35 S 993,8 12 0 0,0
16.01.2018 01:00:00 1,4 -2,5 1,1 -0,2 0,8 4,8 0,6 36 19 63 34 SSE 995,5 12 0 0,0
16.01.2018 00:00:00 1,2 -2,3 1,0 -0,3 0,8 4,8 0,7 37 20 66 36 SSE 997,1 10 0 0,0
15.01.2018 23:00:00 1,0 -2,7 0,5 -0,4 0,8 4,8 0,6 39 21 63 34 SSE 998,8 11 0 0,0
15.01.2018 22:00:00 0,9 -2,5 0,3 -0,3 0,8 4,8 0,8 37 20 63 34 SSE 1000,5 10 0 0,0
15.01.2018 21:00:00 0,9 -2,7 0,7 -0,3 0,8 4,9 0,7 36 19 62 34 SSE 1002,1 9 0 0,0
15.01.2018 20:00:00 0,6 -2,9 0,3 -0,4 0,8 4,9 0,7 36 20 70 38 SSE 1003,8 8 0 0,0
15.01.2018 19:00:00 0,4 -3,3 -0,1 -0,3 0,8 4,9 0,9 37 20 64 34 SSE 1005,3 7 0 0,0
15.01.2018 18:00:00 0,8 -3,0 0,3 -0,3 0,8 4,9 1,1 37 20 62 34 SSE 1006,5 8 0 0,0
15.01.2018 17:00:00 0,9 -2,8 0,6 -0,2 0,8 4,9 1,2 39 21 61 33 SSE 1007,8 8 0 0,0
15.01.2018 16:00:00 1,0 -2,8 0,4 -0,2 0,8 4,9 1,1 34 18 59 32 SSE 1009,8 10 27 0,0
15.01.2018 15:00:00 0,7 -3,1 0,9 -0,2 0,8 4,9 1,2 32 18 53 29 SSE 1010,8 8 60 0,0
15.01.2018 14:00:00 0,2 -3,7 0,9 -0,2 0,8 4,9 1,2 33 18 56 31 SSE 1012,4 9 60 0,0
15.01.2018 13:00:00 -0,3 -3,9 0,6 -0,3 0,8 4,9 0,9 29 16 57 31 SSE 1014,0 5 60 0,0

tt = Température de l'air
td = dewpoint
tt 5cm = Température de l'air 5cm
tt -5cm = Température de l'air -5cm
tt -20cm = Température de l'air -20cm
tt -100cm = Température de l'air -100cm
tw = water temperature
ff = Vitesse du vent
fx = gusts
dd = Direction du vent
ppp = reduced air pressure
vv = visibility
sd = Ensoleillement
rr = Quantités de précipitations

stations d'obs. à proximité